Year,Month,Day,Hour,Minute,Value (Times are PST for temperature in C)
2016,04,28,00,00,2.00
2016,04,28,00,01,2.00
2016,04,28,00,02,2.00
2016,04,28,00,03,2.00
2016,04,28,00,04,2.00
2016,04,28,00,05,2.00
2016,04,28,00,06,2.00
2016,04,28,00,07,2.00
2016,04,28,00,08,2.00
2016,04,28,00,09,2.00
2016,04,28,00,10,2.00
2016,04,28,00,11,2.00
2016,04,28,00,22,2.30
2016,04,28,00,23,2.30
2016,04,28,00,24,2.30
2016,04,28,00,25,2.30
2016,04,28,00,26,2.30
2016,04,28,00,27,2.30
2016,04,28,00,28,2.30
2016,04,28,00,29,2.30
2016,04,28,00,30,2.30
2016,04,28,00,31,2.30
2016,04,28,00,32,2.60
2016,04,28,00,33,2.60
2016,04,28,00,34,2.60
2016,04,28,00,35,2.60
2016,04,28,00,36,2.60
2016,04,28,00,37,2.60
2016,04,28,00,38,2.60
2016,04,28,00,39,2.60
2016,04,28,00,40,2.60
2016,04,28,00,41,2.60
2016,04,28,00,42,2.30
2016,04,28,00,43,2.30
2016,04,28,00,44,2.30
2016,04,28,00,45,2.30
2016,04,28,00,46,2.30
2016,04,28,00,47,2.30
2016,04,28,00,48,2.30
2016,04,28,00,49,2.30
2016,04,28,00,50,2.30
2016,04,28,00,51,2.30
2016,04,28,00,52,2.30
2016,04,28,00,53,2.30
2016,04,28,00,54,2.30
2016,04,28,00,55,2.30
2016,04,28,00,56,2.30
2016,04,28,00,57,2.30
2016,04,28,00,58,2.30
2016,04,28,00,59,2.30
2016,04,28,01,00,2.30
2016,04,28,01,01,2.30
2016,04,28,01,02,2.00
2016,04,28,01,03,2.00
2016,04,28,01,04,2.00
2016,04,28,01,05,2.00
2016,04,28,01,06,2.00
2016,04,28,01,07,2.00
2016,04,28,01,08,2.00
2016,04,28,01,09,2.00
2016,04,28,01,10,2.00
2016,04,28,01,11,2.00
2016,04,28,01,12,1.90
2016,04,28,01,13,1.90
2016,04,28,01,14,1.90
2016,04,28,01,15,1.90
2016,04,28,01,16,1.90
2016,04,28,01,17,1.90
2016,04,28,01,18,1.90
2016,04,28,01,19,1.90
2016,04,28,01,20,1.90
2016,04,28,01,21,2.10
2016,04,28,01,22,2.10
2016,04,28,01,23,2.10
2016,04,28,01,24,2.10
2016,04,28,01,25,2.10
2016,04,28,01,26,2.10
2016,04,28,01,27,2.10
2016,04,28,01,28,2.10
2016,04,28,01,29,2.10
2016,04,28,01,30,2.10
2016,04,28,01,31,2.10
2016,04,28,01,32,2.10
2016,04,28,01,33,2.10
2016,04,28,01,34,2.10
2016,04,28,01,35,2.10
2016,04,28,01,36,2.10
2016,04,28,01,37,2.10
2016,04,28,01,38,2.10
2016,04,28,01,39,2.10
2016,04,28,01,40,2.10
2016,04,28,01,41,1.90
2016,04,28,01,42,1.90
2016,04,28,01,43,1.90
2016,04,28,01,44,1.90
2016,04,28,01,45,1.90
2016,04,28,01,46,1.90
2016,04,28,01,47,1.90
2016,04,28,01,48,1.90
2016,04,28,01,49,1.90
2016,04,28,01,50,1.90
2016,04,28,01,51,1.90
2016,04,28,01,52,1.70
2016,04,28,01,53,1.70
2016,04,28,01,54,1.70
2016,04,28,01,55,1.70
2016,04,28,01,56,1.70
2016,04,28,01,57,1.70
2016,04,28,01,58,1.70
2016,04,28,01,59,1.70
2016,04,28,02,00,1.70
2016,04,28,02,01,1.70
2016,04,28,02,02,1.80
2016,04,28,02,03,1.80
2016,04,28,02,04,1.80
2016,04,28,02,05,1.80
2016,04,28,02,06,1.80
2016,04,28,02,07,1.80
2016,04,28,02,08,1.80
2016,04,28,02,09,1.80
2016,04,28,02,10,1.80
2016,04,28,02,11,1.80
2016,04,28,02,12,1.90
2016,04,28,02,13,1.90
2016,04,28,02,14,1.90
2016,04,28,02,15,1.90
2016,04,28,02,16,1.90
2016,04,28,02,17,1.90
2016,04,28,02,18,1.90
2016,04,28,02,19,1.90
2016,04,28,02,20,1.90
2016,04,28,02,21,1.80
2016,04,28,02,22,1.80
2016,04,28,02,23,1.80
2016,04,28,02,24,1.80
2016,04,28,02,25,1.80
2016,04,28,02,26,1.80
2016,04,28,02,27,1.80
2016,04,28,02,28,1.80
2016,04,28,02,29,1.80
2016,04,28,02,30,1.80
2016,04,28,02,31,1.80
2016,04,28,02,32,1.80
2016,04,28,02,33,1.80
2016,04,28,02,34,1.80
2016,04,28,02,35,1.80
2016,04,28,02,36,1.80
2016,04,28,02,37,1.80
2016,04,28,02,38,1.80
2016,04,28,02,39,1.80
2016,04,28,02,40,1.80
2016,04,28,02,41,1.70
2016,04,28,02,42,1.70
2016,04,28,02,43,1.70
2016,04,28,02,44,1.70
2016,04,28,02,45,1.70
2016,04,28,02,46,1.70
2016,04,28,02,47,1.70
2016,04,28,02,48,1.70
2016,04,28,02,49,1.70
2016,04,28,02,50,1.70
2016,04,28,02,51,1.60
2016,04,28,02,52,1.60
2016,04,28,02,53,1.60
2016,04,28,02,54,1.60
2016,04,28,02,55,1.60
2016,04,28,02,56,1.60
2016,04,28,02,57,1.60
2016,04,28,02,58,1.60
2016,04,28,02,59,1.60
2016,04,28,03,00,1.60
2016,04,28,03,01,1.60
2016,04,28,03,02,1.30
2016,04,28,03,03,1.30
2016,04,28,03,04,1.30
2016,04,28,03,05,1.30
2016,04,28,03,06,1.30
2016,04,28,03,07,1.30
2016,04,28,03,08,1.30
2016,04,28,03,09,1.30
2016,04,28,03,10,1.30
2016,04,28,03,11,1.30
2016,04,28,03,12,1.30
2016,04,28,03,13,1.30
2016,04,28,03,14,1.30
2016,04,28,03,15,1.30
2016,04,28,03,16,1.30
2016,04,28,03,17,1.30
2016,04,28,03,18,1.30
2016,04,28,03,19,1.30
2016,04,28,03,20,1.30
2016,04,28,03,21,1.30
2016,04,28,03,22,1.30
2016,04,28,03,23,1.30
2016,04,28,03,24,1.30
2016,04,28,03,25,1.30
2016,04,28,03,26,1.30
2016,04,28,03,27,1.30
2016,04,28,03,28,1.30
2016,04,28,03,29,1.30
2016,04,28,03,30,1.30
2016,04,28,03,31,1.30
2016,04,28,03,32,1.30
2016,04,28,03,33,1.30
2016,04,28,03,34,1.30
2016,04,28,03,35,1.30
2016,04,28,03,36,1.30
2016,04,28,03,37,1.30
2016,04,28,03,38,1.30
2016,04,28,03,39,1.30
2016,04,28,03,40,1.30
2016,04,28,03,41,1.30
2016,04,28,03,42,1.30
2016,04,28,03,43,1.30
2016,04,28,03,44,1.30
2016,04,28,03,45,1.30
2016,04,28,03,46,1.30
2016,04,28,03,47,1.30
2016,04,28,03,48,1.30
2016,04,28,03,49,1.30
2016,04,28,03,50,1.30
2016,04,28,03,51,1.30
2016,04,28,03,52,1.30
2016,04,28,03,53,1.30
2016,04,28,03,54,1.30
2016,04,28,03,55,1.30
2016,04,28,03,56,1.30
2016,04,28,03,57,1.30
2016,04,28,03,58,1.30
2016,04,28,03,59,1.30
2016,04,28,04,00,1.30
2016,04,28,04,01,1.30
2016,04,28,04,02,1.30
2016,04,28,04,03,1.30
2016,04,28,04,04,1.30
2016,04,28,04,05,1.30
2016,04,28,04,06,1.30
2016,04,28,04,07,1.30
2016,04,28,04,08,1.30
2016,04,28,04,09,1.30
2016,04,28,04,10,1.30
2016,04,28,04,11,1.30
2016,04,28,04,12,1.30
2016,04,28,04,13,1.30
2016,04,28,04,14,1.30
2016,04,28,04,15,1.30
2016,04,28,04,16,1.30
2016,04,28,04,17,1.30
2016,04,28,04,18,1.30
2016,04,28,04,19,1.30
2016,04,28,04,20,1.30
2016,04,28,04,21,1.30
2016,04,28,04,22,1.30
2016,04,28,04,23,1.30
2016,04,28,04,24,1.30
2016,04,28,04,25,1.30
2016,04,28,04,26,1.30
2016,04,28,04,27,1.30
2016,04,28,04,28,1.30
2016,04,28,04,29,1.30
2016,04,28,04,30,1.30
2016,04,28,04,31,1.30
2016,04,28,04,32,1.30
2016,04,28,04,33,1.30
2016,04,28,04,34,1.30
2016,04,28,04,35,1.30
2016,04,28,04,36,1.30
2016,04,28,04,37,1.30
2016,04,28,04,38,1.30
2016,04,28,04,39,1.30
2016,04,28,04,40,1.30
2016,04,28,04,41,1.30
2016,04,28,04,42,1.30
2016,04,28,04,43,1.30
2016,04,28,04,44,1.30
2016,04,28,04,45,1.30
2016,04,28,04,46,1.30
2016,04,28,04,47,1.30
2016,04,28,04,48,1.30
2016,04,28,04,49,1.30
2016,04,28,04,50,1.30
2016,04,28,04,51,1.30
2016,04,28,04,52,1.30
2016,04,28,04,53,1.30
2016,04,28,04,54,1.30
2016,04,28,04,55,1.30
2016,04,28,04,56,1.30
2016,04,28,04,57,1.30
2016,04,28,04,58,1.30
2016,04,28,04,59,1.30
2016,04,28,05,00,1.30
2016,04,28,05,01,1.30
2016,04,28,05,02,1.30
2016,04,28,05,03,1.30
2016,04,28,05,04,1.30
2016,04,28,05,05,1.30
2016,04,28,05,06,1.30
2016,04,28,05,07,1.30
2016,04,28,05,08,1.30
2016,04,28,05,09,1.30
2016,04,28,05,10,1.30
2016,04,28,05,11,1.30
2016,04,28,05,12,1.30
2016,04,28,05,13,1.30
2016,04,28,05,14,1.30
2016,04,28,05,15,1.30
2016,04,28,05,16,1.30
2016,04,28,05,17,1.30
2016,04,28,05,18,1.30
2016,04,28,05,19,1.30
2016,04,28,05,20,1.30
2016,04,28,05,21,1.30
2016,04,28,05,22,1.30
2016,04,28,05,23,1.30
2016,04,28,05,24,1.30
2016,04,28,05,25,1.30
2016,04,28,05,26,1.30
2016,04,28,05,27,1.30
2016,04,28,05,28,1.30
2016,04,28,05,29,1.30
2016,04,28,05,30,1.30
2016,04,28,05,31,1.40
2016,04,28,05,32,1.40
2016,04,28,05,33,1.40
2016,04,28,05,34,1.40
2016,04,28,05,35,1.40
2016,04,28,05,36,1.40
2016,04,28,05,37,1.40
2016,04,28,05,38,1.40
2016,04,28,05,39,1.40
2016,04,28,05,40,1.40
2016,04,28,05,52,1.20
2016,04,28,05,53,1.20
2016,04,28,05,54,1.20
2016,04,28,05,55,1.20
2016,04,28,05,56,1.20
2016,04,28,05,57,1.20
2016,04,28,05,58,1.20
2016,04,28,05,59,1.20
2016,04,28,06,00,1.20
2016,04,28,06,01,1.20
2016,04,28,06,02,1.20
2016,04,28,06,03,1.20
2016,04,28,06,04,1.20
2016,04,28,06,05,1.20
2016,04,28,06,06,1.20
2016,04,28,06,07,1.20
2016,04,28,06,08,1.20
2016,04,28,06,09,1.20
2016,04,28,06,10,1.20
2016,04,28,06,11,1.20
2016,04,28,06,12,1.30
2016,04,28,06,13,1.30
2016,04,28,06,14,1.30
2016,04,28,06,15,1.30
2016,04,28,06,16,1.30
2016,04,28,06,17,1.30
2016,04,28,06,18,1.30
2016,04,28,06,19,1.30
2016,04,28,06,20,1.30
2016,04,28,06,21,1.30
2016,04,28,06,22,1.90
2016,04,28,06,23,1.90
2016,04,28,06,24,1.90
2016,04,28,06,25,1.90
2016,04,28,06,26,1.90
2016,04,28,06,27,1.90
2016,04,28,06,28,1.90
2016,04,28,06,29,1.90
2016,04,28,06,30,1.90
2016,04,28,06,31,2.40
2016,04,28,06,32,2.40
2016,04,28,06,33,2.40
2016,04,28,06,34,2.40
2016,04,28,06,35,2.40
2016,04,28,06,36,2.40
2016,04,28,06,37,2.40
2016,04,28,06,38,2.40
2016,04,28,06,39,2.40
2016,04,28,06,40,2.40
2016,04,28,06,41,2.40
2016,04,28,06,42,2.80
2016,04,28,06,43,2.80
2016,04,28,06,44,2.80
2016,04,28,06,45,2.80
2016,04,28,06,46,2.80
2016,04,28,06,47,2.80
2016,04,28,06,48,2.80
2016,04,28,06,49,2.80
2016,04,28,06,50,2.80
2016,04,28,06,51,2.80
2016,04,28,07,02,3.80
2016,04,28,07,03,3.80
2016,04,28,07,04,3.80
2016,04,28,07,05,3.80
2016,04,28,07,06,3.80
2016,04,28,07,07,3.80
2016,04,28,07,08,3.80
2016,04,28,07,09,3.80
2016,04,28,07,10,3.80
2016,04,28,07,11,3.80
2016,04,28,07,12,3.80
2016,04,28,07,13,3.80
2016,04,28,07,14,3.80
2016,04,28,07,15,3.80
2016,04,28,07,16,3.80
2016,04,28,07,17,3.80
2016,04,28,07,18,3.80
2016,04,28,07,19,3.80
2016,04,28,07,20,3.80
2016,04,28,07,21,3.80
2016,04,28,07,22,3.90
2016,04,28,07,23,3.90
2016,04,28,07,24,3.90
2016,04,28,07,25,3.90
2016,04,28,07,26,3.90
2016,04,28,07,27,3.90
2016,04,28,07,28,3.90
2016,04,28,07,29,3.90
2016,04,28,07,30,3.90
2016,04,28,07,31,3.90
2016,04,28,07,32,3.80
2016,04,28,07,33,3.80
2016,04,28,07,34,3.80
2016,04,28,07,35,3.80
2016,04,28,07,36,3.80
2016,04,28,07,37,3.80
2016,04,28,07,38,3.80
2016,04,28,07,39,3.80
2016,04,28,07,40,3.80
2016,04,28,07,41,4.10
2016,04,28,07,42,4.10
2016,04,28,07,43,4.10
2016,04,28,07,44,4.10
2016,04,28,07,45,4.10
2016,04,28,07,46,4.10
2016,04,28,07,47,4.10
2016,04,28,07,48,4.10
2016,04,28,07,49,4.10
2016,04,28,07,50,4.10
2016,04,28,07,51,4.90
2016,04,28,07,52,4.90
2016,04,28,07,53,4.90
2016,04,28,07,54,4.90
2016,04,28,07,55,4.90
2016,04,28,07,56,4.90
2016,04,28,07,57,4.90
2016,04,28,07,58,4.90
2016,04,28,07,59,4.90
2016,04,28,08,00,4.90
2016,04,28,08,01,4.90
2016,04,28,08,02,4.90
2016,04,28,08,03,4.90
2016,04,28,08,04,4.90
2016,04,28,08,05,4.90
2016,04,28,08,06,4.90
2016,04,28,08,07,4.90
2016,04,28,08,08,4.90
2016,04,28,08,09,4.90
2016,04,28,08,10,4.90
2016,04,28,08,11,4.90
2016,04,28,08,12,4.90
2016,04,28,08,13,4.30
2016,04,28,08,14,4.30
2016,04,28,08,15,4.30
2016,04,28,08,16,4.30
2016,04,28,08,17,4.30
2016,04,28,08,18,4.30
2016,04,28,08,19,4.30
2016,04,28,08,20,4.30
2016,04,28,08,21,4.30
2016,04,28,08,22,4.00
2016,04,28,08,23,4.00
2016,04,28,08,24,4.00
2016,04,28,08,25,4.00
2016,04,28,08,26,4.00
2016,04,28,08,27,4.00
2016,04,28,08,28,4.00
2016,04,28,08,29,4.00
2016,04,28,08,30,4.00
2016,04,28,08,31,4.00
2016,04,28,08,32,4.00
2016,04,28,08,33,3.90
2016,04,28,08,34,3.90
2016,04,28,08,35,3.90
2016,04,28,08,36,3.90
2016,04,28,08,37,3.90
2016,04,28,08,38,3.90
2016,04,28,08,39,3.90
2016,04,28,08,40,3.90
2016,04,28,08,41,3.90
2016,04,28,08,42,3.70
2016,04,28,08,43,3.70
2016,04,28,08,44,3.70
2016,04,28,08,45,3.70
2016,04,28,08,46,3.70
2016,04,28,08,47,3.70
2016,04,28,08,48,3.70
2016,04,28,08,49,3.70
2016,04,28,08,50,3.70
2016,04,28,08,51,3.70
2016,04,28,08,52,3.70
2016,04,28,08,53,3.70
2016,04,28,08,54,3.70
2016,04,28,08,55,3.70
2016,04,28,08,56,3.70
2016,04,28,08,57,3.70
2016,04,28,08,58,3.70
2016,04,28,08,59,3.70
2016,04,28,09,00,3.70
2016,04,28,09,01,3.70
2016,04,28,09,02,4.10
2016,04,28,09,03,4.10
2016,04,28,09,04,4.10
2016,04,28,09,05,4.10
2016,04,28,09,06,4.10
2016,04,28,09,07,4.10
2016,04,28,09,08,4.10
2016,04,28,09,09,4.10
2016,04,28,09,10,4.10
2016,04,28,09,11,4.10
2016,04,28,09,12,4.50
2016,04,28,09,13,4.50
2016,04,28,09,14,4.50
2016,04,28,09,15,4.50
2016,04,28,09,16,4.50
2016,04,28,09,17,4.50
2016,04,28,09,18,4.50
2016,04,28,09,19,4.50
2016,04,28,09,20,4.50
2016,04,28,09,21,4.70
2016,04,28,09,22,4.70
2016,04,28,09,23,4.70
2016,04,28,09,24,4.70
2016,04,28,09,25,4.70
2016,04,28,09,26,4.70
2016,04,28,09,27,4.70
2016,04,28,09,28,4.70
2016,04,28,09,29,4.70
2016,04,28,09,30,4.70
2016,04,28,09,31,4.70
2016,04,28,09,32,4.80
2016,04,28,09,33,4.80
2016,04,28,09,34,4.80
2016,04,28,09,35,4.80
2016,04,28,09,36,4.80
2016,04,28,09,37,4.80
2016,04,28,09,38,4.80
2016,04,28,09,39,4.80
2016,04,28,09,40,4.80
2016,04,28,09,51,5.10
2016,04,28,09,52,5.10
2016,04,28,09,53,5.10
2016,04,28,09,54,5.10
2016,04,28,09,55,5.10
2016,04,28,09,56,5.10
2016,04,28,09,57,5.10
2016,04,28,09,58,5.10
2016,04,28,09,59,5.10
2016,04,28,10,00,5.10
2016,04,28,10,01,4.80
2016,04,28,10,02,4.80
2016,04,28,10,03,4.80
2016,04,28,10,04,4.80
2016,04,28,10,05,4.80
2016,04,28,10,06,4.80
2016,04,28,10,07,4.80
2016,04,28,10,08,4.80
2016,04,28,10,09,4.80
2016,04,28,10,10,4.80
2016,04,28,10,21,4.90
2016,04,28,10,22,4.90
2016,04,28,10,23,4.90
2016,04,28,10,24,4.90
2016,04,28,10,25,4.90
2016,04,28,10,26,4.90
2016,04,28,10,27,4.90
2016,04,28,10,28,4.90
2016,04,28,10,29,4.90
2016,04,28,10,30,4.90
2016,04,28,10,31,5.30
2016,04,28,10,32,5.30
2016,04,28,10,33,5.30
2016,04,28,10,34,5.30
2016,04,28,10,35,5.30
2016,04,28,10,36,5.30
2016,04,28,10,37,5.30
2016,04,28,10,38,5.30
2016,04,28,10,39,5.30
2016,04,28,10,40,5.30
2016,04,28,10,41,4.90
2016,04,28,10,42,4.90
2016,04,28,10,43,4.90
2016,04,28,10,44,4.90
2016,04,28,10,45,4.90
2016,04,28,10,46,4.90
2016,04,28,10,47,4.90
2016,04,28,10,48,4.90
2016,04,28,10,49,4.90
2016,04,28,10,50,4.90
2016,04,28,10,51,4.90
2016,04,28,10,52,4.80
2016,04,28,10,53,4.80
2016,04,28,10,54,4.80
2016,04,28,10,55,4.80
2016,04,28,10,56,4.80
2016,04,28,10,57,4.80
2016,04,28,10,58,4.80
2016,04,28,10,59,4.80
2016,04,28,11,00,4.80
2016,04,28,11,01,4.80
2016,04,28,11,02,4.80
2016,04,28,11,03,4.80
2016,04,28,11,04,4.80
2016,04,28,11,05,4.80
2016,04,28,11,06,4.80
2016,04,28,11,07,4.80
2016,04,28,11,08,4.80
2016,04,28,11,09,4.80
2016,04,28,11,10,4.80
2016,04,28,11,11,5.10
2016,04,28,11,12,5.10
2016,04,28,11,13,5.10
2016,04,28,11,14,5.10
2016,04,28,11,15,5.10
2016,04,28,11,16,5.10
2016,04,28,11,17,5.10
2016,04,28,11,18,5.10
2016,04,28,11,19,5.10
2016,04,28,11,20,5.10
2016,04,28,11,21,5.30
2016,04,28,11,22,5.30
2016,04,28,11,23,5.30
2016,04,28,11,24,5.30
2016,04,28,11,25,5.30
2016,04,28,11,26,5.30
2016,04,28,11,27,5.30
2016,04,28,11,28,5.30
2016,04,28,11,29,5.30
2016,04,28,11,30,5.30
2016,04,28,11,31,5.40
2016,04,28,11,32,5.40
2016,04,28,11,33,5.40
2016,04,28,11,34,5.40
2016,04,28,11,35,5.40
2016,04,28,11,36,5.40
2016,04,28,11,37,5.40
2016,04,28,11,38,5.40
2016,04,28,11,39,5.40
2016,04,28,11,40,5.40
2016,04,28,11,41,5.80
2016,04,28,11,42,5.80
2016,04,28,11,43,5.80
2016,04,28,11,44,5.80
2016,04,28,11,45,5.80
2016,04,28,11,46,5.80
2016,04,28,11,47,5.80
2016,04,28,11,48,5.80
2016,04,28,11,49,5.80
2016,04,28,11,50,5.80
2016,04,28,11,51,5.80
2016,04,28,11,52,5.80
2016,04,28,11,53,5.80
2016,04,28,11,54,5.80
2016,04,28,11,55,5.80
2016,04,28,11,56,5.80
2016,04,28,11,57,5.80
2016,04,28,11,58,5.80
2016,04,28,11,59,5.80
2016,04,28,12,00,5.80
2016,04,28,12,01,5.50
2016,04,28,12,02,5.50
2016,04,28,12,03,5.50
2016,04,28,12,04,5.50
2016,04,28,12,05,5.50
2016,04,28,12,06,5.50
2016,04,28,12,07,5.50
2016,04,28,12,08,5.50
2016,04,28,12,09,5.50
2016,04,28,12,10,5.50
2016,04,28,12,11,5.90
2016,04,28,12,12,5.90
2016,04,28,12,13,5.90
2016,04,28,12,14,5.90
2016,04,28,12,15,5.90
2016,04,28,12,16,5.90
2016,04,28,12,17,5.90
2016,04,28,12,18,5.90
2016,04,28,12,19,5.90
2016,04,28,12,20,5.90
2016,04,28,12,21,5.90
2016,04,28,12,31,5.90
2016,04,28,12,32,5.90
2016,04,28,12,33,5.90
2016,04,28,12,34,5.90
2016,04,28,12,35,5.90
2016,04,28,12,36,5.90
2016,04,28,12,37,5.90
2016,04,28,12,38,5.90
2016,04,28,12,39,5.90
2016,04,28,12,40,5.90
2016,04,28,12,41,5.90
2016,04,28,12,42,5.90
2016,04,28,12,43,5.90
2016,04,28,12,44,5.90
2016,04,28,12,45,5.90
2016,04,28,12,46,5.90
2016,04,28,12,47,5.90
2016,04,28,12,48,5.90
2016,04,28,12,49,5.90
2016,04,28,12,50,5.90
2016,04,28,12,51,5.90
2016,04,28,12,52,6.60
2016,04,28,12,53,6.60
2016,04,28,12,54,6.60
2016,04,28,12,55,6.60
2016,04,28,12,56,6.60
2016,04,28,12,57,6.60
2016,04,28,12,58,6.60
2016,04,28,12,59,6.60
2016,04,28,13,00,6.60
2016,04,28,13,01,6.60
2016,04,28,13,02,6.60
2016,04,28,13,03,6.60
2016,04,28,13,04,6.60
2016,04,28,13,05,6.60
2016,04,28,13,06,6.60
2016,04,28,13,07,6.60
2016,04,28,13,08,6.60
2016,04,28,13,09,6.60
2016,04,28,13,10,6.60
2016,04,28,13,11,6.60
2016,04,28,13,22,6.40
2016,04,28,13,23,6.40
2016,04,28,13,24,6.40
2016,04,28,13,25,6.40
2016,04,28,13,26,6.40
2016,04,28,13,27,6.40
2016,04,28,13,28,6.40
2016,04,28,13,29,6.40
2016,04,28,13,30,6.40
2016,04,28,13,31,6.20
2016,04,28,13,32,6.20
2016,04,28,13,33,6.20
2016,04,28,13,34,6.20
2016,04,28,13,35,6.20
2016,04,28,13,36,6.20
2016,04,28,13,37,6.20
2016,04,28,13,38,6.20
2016,04,28,13,39,6.20
2016,04,28,13,40,6.20
2016,04,28,13,41,6.20
2016,04,28,13,42,6.50
2016,04,28,13,43,6.50
2016,04,28,13,44,6.50
2016,04,28,13,45,6.50
2016,04,28,13,46,6.50
2016,04,28,13,47,6.50
2016,04,28,13,48,6.50
2016,04,28,13,49,6.50
2016,04,28,13,50,6.50
2016,04,28,13,51,6.90
2016,04,28,13,52,6.90
2016,04,28,13,53,6.90
2016,04,28,13,54,6.90
2016,04,28,13,55,6.90
2016,04,28,13,56,6.90
2016,04,28,13,57,6.90
2016,04,28,13,58,6.90
2016,04,28,13,59,6.90
2016,04,28,14,00,6.90
2016,04,28,14,01,7.40
2016,04,28,14,02,7.40
2016,04,28,14,03,7.40
2016,04,28,14,04,7.40
2016,04,28,14,05,7.40
2016,04,28,14,06,7.40
2016,04,28,14,07,7.40
2016,04,28,14,08,7.40
2016,04,28,14,09,7.40
2016,04,28,14,10,7.40
2016,04,28,14,11,7.40
2016,04,28,14,12,6.90
2016,04,28,14,13,6.90
2016,04,28,14,14,6.90
2016,04,28,14,15,6.90
2016,04,28,14,16,6.90
2016,04,28,14,17,6.90
2016,04,28,14,18,6.90
2016,04,28,14,19,6.90
2016,04,28,14,20,6.90
2016,04,28,14,21,6.80
2016,04,28,14,22,6.80
2016,04,28,14,23,6.80
2016,04,28,14,24,6.80
2016,04,28,14,25,6.80
2016,04,28,14,26,6.80
2016,04,28,14,27,6.80
2016,04,28,14,28,6.80
2016,04,28,14,29,6.80
2016,04,28,14,30,6.80
2016,04,28,14,31,6.80
2016,04,28,14,32,6.80
2016,04,28,14,33,6.80
2016,04,28,14,34,6.80
2016,04,28,14,35,6.80
2016,04,28,14,36,6.80
2016,04,28,14,37,6.80
2016,04,28,14,38,6.80
2016,04,28,14,39,6.80
2016,04,28,14,40,6.80
2016,04,28,14,41,6.80
2016,04,28,14,42,6.80
2016,04,28,14,43,6.80
2016,04,28,14,44,6.80
2016,04,28,14,45,6.80
2016,04,28,14,46,6.80
2016,04,28,14,47,6.80
2016,04,28,14,48,6.80
2016,04,28,14,49,6.80
2016,04,28,14,50,6.80
2016,04,28,14,51,6.10
2016,04,28,14,52,6.10
2016,04,28,14,53,6.10
2016,04,28,14,54,6.10
2016,04,28,14,55,6.10
2016,04,28,14,56,6.10
2016,04,28,14,57,6.10
2016,04,28,14,58,6.10
2016,04,28,14,59,6.10
2016,04,28,15,00,6.10
2016,04,28,15,01,6.10
2016,04,28,15,02,6.10
2016,04,28,15,03,6.10
2016,04,28,15,04,6.10
2016,04,28,15,05,6.10
2016,04,28,15,06,6.10
2016,04,28,15,07,6.10
2016,04,28,15,08,6.10
2016,04,28,15,09,6.10
2016,04,28,15,10,6.10
2016,04,28,15,11,6.10
2016,04,28,15,12,5.80
2016,04,28,15,13,5.80
2016,04,28,15,14,5.80
2016,04,28,15,15,5.80
2016,04,28,15,16,5.80
2016,04,28,15,17,5.80
2016,04,28,15,18,5.80
2016,04,28,15,19,5.80
2016,04,28,15,20,5.80
2016,04,28,15,21,5.60
2016,04,28,15,22,5.60
2016,04,28,15,23,5.60
2016,04,28,15,24,5.60
2016,04,28,15,25,5.60
2016,04,28,15,26,5.60
2016,04,28,15,27,5.60
2016,04,28,15,28,5.60
2016,04,28,15,29,5.60
2016,04,28,15,30,5.60
2016,04,28,15,31,5.80
2016,04,28,15,32,5.80
2016,04,28,15,33,5.80
2016,04,28,15,34,5.80
2016,04,28,15,35,5.80
2016,04,28,15,36,5.80
2016,04,28,15,37,5.80
2016,04,28,15,38,5.80
2016,04,28,15,39,5.80
2016,04,28,15,40,5.80
2016,04,28,15,41,5.80
2016,04,28,15,42,5.70
2016,04,28,15,43,5.70
2016,04,28,15,44,5.70
2016,04,28,15,45,5.70
2016,04,28,15,46,5.70
2016,04,28,15,47,5.70
2016,04,28,15,48,5.70
2016,04,28,15,49,5.70
2016,04,28,15,50,5.70
2016,04,28,15,51,5.30
2016,04,28,15,52,5.30
2016,04,28,15,53,5.30
2016,04,28,15,54,5.30
2016,04,28,15,55,5.30
2016,04,28,15,56,5.30
2016,04,28,15,57,5.30
2016,04,28,15,58,5.30
2016,04,28,15,59,5.30
2016,04,28,16,00,5.30
2016,04,28,16,01,5.30
2016,04,28,16,11,4.90
2016,04,28,16,12,4.90
2016,04,28,16,13,4.90
2016,04,28,16,14,4.90
2016,04,28,16,15,4.90
2016,04,28,16,16,4.90
2016,04,28,16,17,4.90
2016,04,28,16,18,4.90
2016,04,28,16,19,4.90
2016,04,28,16,20,4.90
2016,04,28,16,21,4.90
2016,04,28,16,22,4.40
2016,04,28,16,23,4.40
2016,04,28,16,24,4.40
2016,04,28,16,25,4.40
2016,04,28,16,26,4.40
2016,04,28,16,27,4.40
2016,04,28,16,28,4.40
2016,04,28,16,29,4.40
2016,04,28,16,30,4.40
2016,04,28,16,31,4.40
2016,04,28,16,32,4.60
2016,04,28,16,33,4.60
2016,04,28,16,34,4.60
2016,04,28,16,35,4.60
2016,04,28,16,36,4.60
2016,04,28,16,37,4.60
2016,04,28,16,38,4.60
2016,04,28,16,39,4.60
2016,04,28,16,40,4.60
2016,04,28,16,41,4.60
2016,04,28,16,42,4.70
2016,04,28,16,43,4.70
2016,04,28,16,44,4.70
2016,04,28,16,45,4.70
2016,04,28,16,46,4.70
2016,04,28,16,47,4.70
2016,04,28,16,48,4.70
2016,04,28,16,49,4.70
2016,04,28,16,50,4.70
2016,04,28,16,51,4.70
2016,04,28,16,52,4.30
2016,04,28,16,53,4.30
2016,04,28,16,54,4.30
2016,04,28,16,55,4.30
2016,04,28,16,56,4.30
2016,04,28,16,57,4.30
2016,04,28,16,58,4.30
2016,04,28,16,59,4.30
2016,04,28,17,00,4.30
2016,04,28,17,01,4.30
2016,04,28,17,02,4.30
2016,04,28,17,03,4.30
2016,04,28,17,04,4.30
2016,04,28,17,05,4.30
2016,04,28,17,06,4.30
2016,04,28,17,07,4.30
2016,04,28,17,08,4.30
2016,04,28,17,09,4.30
2016,04,28,17,10,4.30
2016,04,28,17,11,4.30
2016,04,28,17,12,4.30
2016,04,28,17,13,4.30
2016,04,28,17,14,4.30
2016,04,28,17,15,4.30
2016,04,28,17,16,4.30
2016,04,28,17,17,4.30
2016,04,28,17,18,4.30
2016,04,28,17,19,4.30
2016,04,28,17,20,4.30
2016,04,28,17,21,4.30
2016,04,28,17,22,4.40
2016,04,28,17,23,4.40
2016,04,28,17,24,4.40
2016,04,28,17,25,4.40
2016,04,28,17,26,4.40
2016,04,28,17,27,4.40
2016,04,28,17,28,4.40
2016,04,28,17,29,4.40
2016,04,28,17,30,4.40
2016,04,28,17,31,4.40
2016,04,28,17,32,4.10
2016,04,28,17,33,4.10
2016,04,28,17,34,4.10
2016,04,28,17,35,4.10
2016,04,28,17,36,4.10
2016,04,28,17,37,4.10
2016,04,28,17,38,4.10
2016,04,28,17,39,4.10
2016,04,28,17,40,4.10
2016,04,28,17,41,4.10
2016,04,28,17,52,3.80
2016,04,28,17,53,3.80
2016,04,28,17,54,3.80
2016,04,28,17,55,3.80
2016,04,28,17,56,3.80
2016,04,28,17,57,3.80
2016,04,28,17,58,3.80
2016,04,28,17,59,3.80
2016,04,28,18,00,3.80
2016,04,28,18,01,3.30
2016,04,28,18,02,3.30
2016,04,28,18,03,3.30
2016,04,28,18,04,3.30
2016,04,28,18,05,3.30
2016,04,28,18,06,3.30
2016,04,28,18,07,3.30
2016,04,28,18,08,3.30
2016,04,28,18,09,3.30
2016,04,28,18,10,3.30
2016,04,28,18,11,3.20
2016,04,28,18,12,3.20
2016,04,28,18,13,3.20
2016,04,28,18,14,3.20
2016,04,28,18,15,3.20
2016,04,28,18,16,3.20
2016,04,28,18,17,3.20
2016,04,28,18,18,3.20
2016,04,28,18,19,3.20
2016,04,28,18,20,3.20
2016,04,28,18,32,3.20
2016,04,28,18,33,3.20
2016,04,28,18,34,3.20
2016,04,28,18,35,3.20
2016,04,28,18,36,3.20
2016,04,28,18,37,3.20
2016,04,28,18,38,3.20
2016,04,28,18,39,3.20
2016,04,28,18,40,3.20
2016,04,28,18,41,3.20
2016,04,28,18,42,3.20
2016,04,28,18,43,3.20
2016,04,28,18,44,3.20
2016,04,28,18,45,3.20
2016,04,28,18,46,3.20
2016,04,28,18,47,3.20
2016,04,28,18,48,3.20
2016,04,28,18,49,3.20
2016,04,28,18,50,3.20
2016,04,28,18,51,3.20
2016,04,28,18,52,3.20
2016,04,28,18,53,3.20
2016,04,28,18,54,3.20
2016,04,28,18,55,3.20
2016,04,28,18,56,3.20
2016,04,28,18,57,3.20
2016,04,28,18,58,3.20
2016,04,28,18,59,3.20
2016,04,28,19,00,3.20
2016,04,28,19,01,3.20
2016,04,28,19,02,3.20
2016,04,28,19,03,3.20
2016,04,28,19,04,3.20
2016,04,28,19,05,3.20
2016,04,28,19,06,3.20
2016,04,28,19,07,3.20
2016,04,28,19,08,3.20
2016,04,28,19,09,3.20
2016,04,28,19,10,3.20
2016,04,28,19,11,3.20
2016,04,28,19,22,2.80
2016,04,28,19,23,2.80
2016,04,28,19,24,2.80
2016,04,28,19,25,2.80
2016,04,28,19,26,2.80
2016,04,28,19,27,2.80
2016,04,28,19,28,2.80
2016,04,28,19,29,2.80
2016,04,28,19,30,2.80
2016,04,28,19,31,2.80
2016,04,28,19,32,2.70
2016,04,28,19,33,2.70
2016,04,28,19,34,2.70
2016,04,28,19,35,2.70
2016,04,28,19,36,2.70
2016,04,28,19,37,2.70
2016,04,28,19,38,2.70
2016,04,28,19,39,2.70
2016,04,28,19,40,2.70
2016,04,28,20,01,1.90
2016,04,28,20,02,1.90
2016,04,28,20,03,1.90
2016,04,28,20,04,1.90
2016,04,28,20,05,1.90
2016,04,28,20,06,1.90
2016,04,28,20,07,1.90
2016,04,28,20,08,1.90
2016,04,28,20,09,1.90
2016,04,28,20,10,1.90
2016,04,28,20,21,1.40
2016,04,28,20,22,1.40
2016,04,28,20,23,1.40
2016,04,28,20,24,1.40
2016,04,28,20,25,1.40
2016,04,28,20,26,1.40